User: anonymous   Login
Location: Newark
(52.1752°N, 10.4140°W)
Time: 16:03:55
(UTC+00:00)
Language:

N. Korean satellite - Orbit

View from above orbital plane
View from above orbital plane
View from above satellite
View from above satellite

Ground track
Ground track

The orbit data is extracted from the following two-line orbital elements,

1 39026U 12072A   19340.52091847  .00000771  00000-0  30166-4 0  9990
2 39026  97.2160 338.2232 0036703 211.7223 148.1806 15.28222510387685
Epoch (UTC): 06 December 2019 12:30:07
Eccentricity: 0.0036703
inclination: 97.2160°
perigee height: 456 km
apogee height: 506 km
right ascension of ascending node: 338.2232°
argument of perigee: 211.7223°
revolutions per day: 15.28222510
mean anomaly at epoch: 148.1806°
orbit number at epoch: 38768

The dashed part of the orbit path shows where the satellite is in the earth's shadow,  

DLR